Flag for U.S.A. Weather past 2 weeks in Buffalo, New York, U.S.A.

Now
33 °F

Fog.


Feels Like: 25 °F
Forecast: 26 / 33 °F
Wind: 10 mph from Southwest

Location: Greater Buffalo International Airport

Current Time: Mar 26, 2015 at 10:41:31 PM

Latest Report: Mar 26, 2015 at 9:54 PM


Visibility: 2 mi

Pressure: 29.85 "Hg

Humidity: 96%

Dew point: 32 °F

Location of BuffaloLocation

Historic Weather in Buffalo — Graph

°F

Buffalo temperature yesterday

Maximum temperature yesterday: 46 °F (at 2:54 PM)
Minimum temperature yesterday: 27 °F (at 1:54 AM)
Average temperature yesterday: 38 °F

Past Weeks' High & Low Weather Summary

 TemperatureHumidityPressure
High51 °F (Mar 13, 5:54 PM)97% (Mar 14, 5:57 PM)30.64 "Hg (Mar 14, 5:57 PM)
Low17 °F (Mar 19, 6:54 AM)24% (Mar 12, 4:54 PM)29.64 "Hg (Mar 17, 3:54 AM)
Average33 °F64%30.14 "Hg
* Reported Mar 11 8:54 PM — Mar 26 8:54 PM, Buffalo, Weather by CustomWeather, © 2015

Note: Actual official high and low records may vary slightly from our data, if they occured in-between our weather recording intervals... More about our weather records

Advertising

Buffalo weather history for previous 24 hours

 ConditionsComfort  
Time TempWeatherWind HumidityBarometerVisibility
8:54 PM
Thu, Mar 26
33 °FFog.12 mph96%29.85 "Hg2 mi
7:54 PM33 °FFog.10 mph96%29.84 "Hg2 mi
6:54 PM33 °FFog.12 mph96%29.82 "Hg1 mi
5:54 PM34 °FFog.12 mph92%29.82 "Hg2 mi
4:54 PM35 °FLight rain. Fog.7 mph88%29.79 "Hg3 mi
3:54 PM34 °FLight rain. Fog.6 mph92%29.80 "Hg2 mi
2:54 PM35 °FLight snow. Fog.5 mph88%29.80 "Hg1 mi
1:54 PM34 °FLight snow. Fog.3 mph88%29.81 "Hg1 mi
12:54 PM33 °FSnow. Fog.No wind96%29.82 "Hg1 mi
11:54 AM33 °FHeavy snow. Fog.No wind96%29.84 "Hg0 mi
10:54 AM35 °FLight rain. Mostly cloudy.No wind88%29.86 "Hg1 mi
9:54 AM36 °FLight rain. Low clouds.6 mph85%29.88 "Hg2 mi
8:54 AM38 °FLight rain. Fog.6 mph90%29.90 "Hg2 mi
7:54 AM37 °FFog.5 mph93%29.91 "Hg1 mi
6:54 AM36 °FFog.3 mph97%29.88 "Hg2 mi
5:54 AM36 °FFog.6 mph92%29.93 "Hg2 mi
4:54 AM37 °FFog.6 mph93%29.95 "Hg3 mi
3:54 AM37 °FFog.8 mph93%29.96 "Hg4 mi
2:54 AM38 °FFog.8 mph93%29.94 "Hg4 mi
1:54 AM38 °FFog.12 mph93%29.96 "Hg5 mi
12:54 AM41 °FFog.15 mph86%29.95 "Hg6 mi
11:54 PM
Wed, Mar 25
42 °FOvercast.16 mph85%29.94 "Hg7 mi
10:54 PM41 °FFog.17 mph89%29.96 "Hg6 mi
Weather by CustomWeather, © 2015

See weather overviewHow to use our weather pages